Probability
0 0 0 0 0 0 0 0 0 0 0 0 0 0 0 0 0 0 0 0 3 10 16 29 32 35 35 29 26 26 32 32 32 32 32 29 29 26 26 23 23 26 29 29 29 26 23 16 19
0 0 0 0 0 0 0 0 0 0 0 0 0 0 0 0 0 0 0 3 3 6 13 19 32 32 32 32 26 26 26 23 26 29 26 23 23 23 23 19 16 16 23 26 19 19 19 19 23
0 0 0 0 0 0 0 0 0 0 0 0 0 0 0 0 0 0 0 0 3 3 13 16 26 29 32 32 29 26 23 23 19 16 19 19 19 19 19 19 19 16 16 19 16 19 16 16 16
0 0 0 0 0 0 0 0 0 0 0 0 0 0 0 0 0 0 3 3 3 3 6 19 26 26 29 29 29 23 23 23 16 16 16 19 19 19 19 19 16 16 23 19 16 10 13 13 10
0 0 0 0 0 0 0 0 0 0 0 0 0 0 0 0 0 3 3 3 3 3 6 13 19 19 23 23 26 19 19 16 16 16 16 16 19 19 19 16 13 13 13 13 10 6 6 3 6
0 0 0 0 0 0 0 0 0 0 0 0 0 0 0 0 0 0 3 0 0 3 3 10 16 16 19 19 23 19 19 16 16 13 13 13 13 13 16 16 16 16 16 13 13 10 3 3 3
0 0 0 0 0 0 0 0 0 0 0 0 0 0 0 0 0 0 0 0 0 0 0 0 3 10 10 10 10 16 13 13 13 13 13 10 10 10 13 13 16 16 16 13 13 10 6 6 6
0 0 0 0 0 0 0 0 0 0 0 0 0 0 0 0 0 0 0 0 0 0 0 0 3 0 3 3 6 6 6 6 6 6 6 6 6 10 10 10 10 10 13 10 13 10 10 10 10
0 0 0 0 0 0 0 0 0 0 0 0 0 0 0 0 0 0 0 0 0 0 0 0 3 0 0 0 0 3 3 3 3 3 3 6 6 6 6 6 6 10 10 10 13 10 10 3 0
0 0 0 0 0 0 0 0 0 0 0 0 0 0 0 0 0 0 0 0 0 0 0 0 0 0 0 0 0 0 0 0 0 0 3 3 3 3 3 3 6 6 6 6 3 3 3 0 0
0 0 0 0 0 0 0 0 0 0 0 0 0 0 0 0 0 0 0 0 0 0 0 0 0 0 0 0 0 0 0 0 0 0 0 0 0 0 0 0 0 0 3 3 3 3 0 0 0
0 0 0 0 0 0 0 0 0 0 0 0 0 0 0 0 0 0 0 0 0 0 0 0 0 0 0 0 0 0 0 0 0 0 0 0 0 0 0 0 0 0 0 0 3 3 3 0 0
0 0 0 0 0 0 0 0 0 0 0 0 0 0 0 0 0 0 0 0 0 0 0 0 0 0 0 0 0 0 0 0 0 0 0 0 0 0 0 0 0 0 0 0 0 3 0 0 0
0 0 0 0 0 0 0 0 0 0 0 0 0 0 0 0 0 0 0 0 0 0 0 0 0 0 0 0 0 0 0 0 0 0 0 0 0 0 0 0 0 0 0 0 0 0 0 0 0
0 0 0 0 0 0 0 0 0 0 0 0 0 0 0 0 0 0 0 0 0 0 0 0 0 0 0 0 0 0 0 0 0 0 0 0 0 0 0 0 0 0 0 0 0 0 0 0 0
0 0 0 0 0 0 0 0 0 0 0 0 0 0 0 0 0 0 0 0 0 0 0 0 0 0 0 0 0 0 0 0 0 0 0 0 0 0 0 0 0 0 0 0 0 0 0 0 0
0 0 0 0 0 0 0 0 0 0 0 0 0 0 0 0 0 0 0 0 0 0 0 0 0 0 0 0 0 0 0 0 0 0 0 0 0 0 0 0 0 0 0 0 0 0 0 0 0
0 0 0 0 0 0 0 0 0 0 0 0 0 0 0 0 0 0 0 0 0 0 0 0 0 0 0 0 0 0 0 0 0 0 0 0 0 0 0 0 0 0 0 0 0 0 0 0 0
0 0 0 0 0 0 0 0 0 0 0 0 0 0 0 0 0 0 0 0 0 0 0 0 0 0 0 0 0 0 0 0 0 0 0 0 0 0 0 0 0 0 0 0 0 0 0 0 0
0 0 0 0 0 0 0 0 0 0 0 0 0 0 0 0 0 0 0 0 0 0 0 0 0 0 0 0 0 0 0 0 0 0 0 0 0 0 0 0 0 0 0 0 0 0 0 0 0
0 0 0 0 0 0 0 0 0 0 0 0 0 0 0 0 0 0 0 0 0 0 0 0 0 0 0 0 0 0 0 0 0 0 0 0 0 0 0 0 0 0 0 0 0 0 0 0 0
0 0 0 0 0 0 0 0 0 0 0 0 0 0 0 0 0 0 0 0 0 0 0 0 0 0 0 0 0 0 0 0 0 0 0 0 0 0 0 0 0 0 0 0 0 0 0 0 0
0 0 0 0 0 0 0 0 0 0 0 0 0 0 0 0 0 0 0 0 0 0 0 0 0 0 0 0 0 0 0 0 0 0 0 0 0 0 0 0 0 0 0 0 0 0 0 0 0
0 0 0 0 0 0 0 0 0 0 0 0 0 0 0 0 0 0 0 0 0 0 0 0 0 0 0 0 0 0 0 0 0 0 0 0 0 0 0 0 0 0 0 0 0 0 0 0 0
0 0 0 0 0 0 0 0 0 0 0 0 0 0 0 0 0 0 0 0 0 0 0 0 0 0 0 0 0 0 0 0 0 0 0 0 0 0 0 0 0 0 0 0 0 0 0 0 0
0 0 0 0 0 0 0 0 0 0 0 0 0 0 0 0 0 0 0 0 0 0 0 0 0 0 0 0 0 0 0 0 0 0 0 0 0 0 0 0 0 0 0 0 0 0 0 0 0
0 0 0 0 0 0 0 0 0 0 0 0 0 0 0 0 0 0 0 0 0 0 0 0 0 0 0 0 0 0 0 0 0 0 0 0 0 0 0 0 0 0 0 0 0 0 0 0 0
0 0 0 0 0 0 0 0 0 0 0 0 0 0 0 0 0 0 0 0 0 0 0 0 0 0 0 0 0 0 0 0 0 0 0 0 0 0 0 0 0 0 0 0 0 0 0 0 0
0 0 0 0 0 0 0 0 0 0 0 0 0 0 0 0 0 0 0 0 0 0 0 0 0 0 0 0 0 0 0 0 0 0 0 0 0 0 0 0 0 0 0 0 0 0 0 0 0
0 0 0 0 0 0 0 0 0 0 0 0 0 0 0 0 0 0 0 0 0 0 0 0 0 0 0 0 0 0 0 0 0 0 0 0 0 0 0 0 0 0 0 0 0 0 0 0 0
Height
5812 5814 5815 5817 5819 5820 5821 5823 5825 5826 5827 5828 5830 5831 5832 5833 5835 5839 5838 5838 5839 5840 5841 5842 5842 5843 5844 5845 5846 5847 5847 5848 5849 5849 5850 5851 5851 5852 5852 5853 5853 5853 5853 5854 5854 5854 5854 5854 5854
5807 5809 5811 5812 5813 5815 5817 5819 5820 5821 5823 5824 5825 5826 5828 5829 5830 5832 5833 5834 5835 5836 5837 5838 5839 5840 5841 5841 5842 5843 5844 5845 5846 5846 5847 5848 5848 5849 5849 5850 5850 5850 5850 5851 5851 5851 5851 5851 5851
5802 5804 5806 5807 5808 5811 5813 5814 5816 5816 5817 5819 5820 5821 5823 5824 5825 5827 5828 5829 5831 5832 5833 5834 5835 5836 5837 5837 5838 5839 5840 5841 5842 5843 5844 5845 5845 5846 5846 5847 5847 5847 5847 5847 5848 5848 5848 5848 5848
5797 5799 5801 5803 5804 5806 5807 5809 5810 5811 5812 5814 5815 5816 5818 5819 5821 5822 5823 5824 5826 5827 5828 5829 5830 5831 5832 5833 5834 5835 5836 5837 5838 5839 5840 5841 5842 5842 5843 5843 5844 5844 5844 5844 5844 5845 5845 5845 5845
5791 5793 5795 5796 5799 5800 5801 5803 5804 5806 5807 5808 5810 5811 5812 5814 5815 5816 5818 5819 5820 5822 5823 5824 5826 5827 5827 5828 5830 5831 5832 5833 5834 5835 5836 5837 5838 5838 5839 5839 5840 5840 5840 5840 5841 5841 5841 5841 5841
5786 5787 5789 5791 5793 5795 5796 5797 5799 5801 5802 5803 5805 5806 5807 5809 5809 5811 5812 5813 5815 5817 5818 5820 5821 5821 5822 5823 5824 5826 5827 5828 5829 5830 5832 5832 5833 5834 5835 5835 5836 5836 5836 5836 5836 5837 5837 5837 5837
5780 5781 5782 5785 5787 5789 5790 5791 5794 5795 5797 5798 5799 5801 5802 5803 5804 5805 5806 5808 5809 5811 5813 5814 5815 5816 5817 5818 5819 5820 5821 5823 5824 5825 5826 5827 5828 5829 5830 5830 5831 5831 5831 5832 5832 5832 5832 5833 5833
5773 5775 5776 5778 5781 5783 5785 5786 5787 5789 5791 5792 5794 5795 5796 5797 5798 5799 5800 5802 5803 5805 5807 5808 5809 5810 5811 5812 5813 5814 5815 5817 5818 5819 5820 5822 5823 5823 5824 5825 5826 5826 5826 5827 5827 5827 5828 5828 5828
5767 5770 5770 5773 5775 5777 5779 5779 5781 5783 5785 5786 5788 5789 5791 5792 5792 5793 5795 5796 5798 5799 5800 5802 5803 5804 5805 5806 5807 5808 5809 5811 5812 5813 5815 5816 5817 5818 5819 5819 5820 5820 5820 5821 5821 5822 5822 5822 5822
5761 5762 5765 5767 5769 5770 5772 5773 5775 5777 5779 5780 5782 5783 5784 5785 5787 5788 5789 5790 5792 5793 5795 5796 5797 5798 5799 5800 5801 5802 5803 5805 5806 5807 5809 5810 5811 5811 5812 5813 5814 5814 5815 5815 5815 5816 5816 5816 5816
5754 5756 5759 5760 5761 5763 5765 5767 5768 5770 5772 5774 5776 5777 5778 5779 5781 5782 5783 5784 5785 5787 5788 5790 5791 5791 5792 5793 5794 5795 5796 5798 5799 5801 5802 5803 5804 5805 5805 5806 5807 5808 5808 5808 5809 5809 5809 5809 5809
5748 5750 5751 5753 5754 5756 5758 5760 5761 5763 5766 5767 5768 5770 5771 5772 5774 5775 5777 5778 5779 5780 5781 5783 5784 5785 5786 5786 5787 5788 5789 5790 5792 5793 5794 5796 5797 5798 5798 5799 5800 5800 5801 5801 5801 5802 5802 5802 5802
5741 5743 5744 5746 5747 5749 5751 5753 5754 5756 5758 5759 5761 5763 5764 5766 5767 5768 5769 5770 5772 5773 5774 5776 5777 5778 5779 5780 5780 5781 5782 5783 5784 5785 5787 5788 5789 5790 5791 5791 5792 5793 5793 5794 5794 5794 5794 5794 5794
5734 5735 5737 5738 5740 5741 5743 5745 5747 5749 5750 5752 5753 5755 5757 5758 5760 5761 5762 5763 5764 5766 5767 5768 5770 5771 5771 5772 5773 5774 5775 5775 5776 5777 5779 5780 5781 5782 5783 5783 5784 5784 5785 5785 5785 5785 5786 5786 5786
5727 5729 5730 5731 5733 5734 5736 5738 5740 5741 5742 5744 5746 5748 5749 5751 5752 5754 5755 5756 5757 5758 5759 5761 5762 5763 5764 5765 5766 5766 5767 5768 5768 5769 5770 5771 5772 5773 5774 5775 5775 5775 5776 5776 5776 5777 5777 5777 5777
5719 5721 5723 5725 5726 5727 5730 5731 5732 5732 5734 5736 5738 5740 5741 5743 5744 5745 5746 5748 5749 5750 5751 5752 5754 5755 5756 5757 5757 5758 5759 5759 5760 5761 5762 5763 5764 5764 5765 5766 5766 5766 5767 5767 5767 5767 5767 5767 5768
5712 5713 5715 5718 5718 5719 5720 5723 5725 5725 5726 5728 5730 5731 5733 5734 5735 5737 5738 5739 5740 5741 5742 5744 5745 5746 5748 5748 5749 5750 5750 5751 5751 5752 5753 5754 5754 5755 5756 5756 5757 5757 5757 5758 5758 5758 5757 5757 5757
5706 5707 5708 5710 5711 5711 5712 5715 5717 5717 5718 5720 5721 5723 5724 5725 5727 5728 5729 5730 5731 5732 5733 5735 5736 5737 5738 5739 5740 5741 5742 5742 5743 5743 5744 5744 5745 5745 5746 5746 5747 5747 5747 5747 5748 5748 5747 5747 5747
5698 5699 5700 5702 5702 5703 5704 5706 5708 5708 5709 5711 5712 5713 5715 5717 5718 5719 5720 5721 5722 5723 5724 5725 5726 5727 5729 5730 5731 5732 5732 5733 5733 5733 5734 5734 5735 5735 5736 5736 5736 5736 5737 5737 5737 5737 5737 5736 5736
5690 5691 5692 5694 5694 5695 5696 5698 5699 5700 5701 5702 5703 5705 5706 5707 5708 5710 5710 5711 5712 5713 5714 5715 5716 5717 5719 5720 5721 5722 5722 5723 5723 5723 5723 5724 5724 5725 5725 5725 5725 5725 5726 5726 5726 5726 5725 5725 5725
5682 5684 5685 5685 5686 5686 5688 5690 5691 5692 5692 5694 5694 5695 5697 5698 5699 5700 5701 5702 5703 5703 5704 5705 5706 5707 5708 5709 5710 5711 5711 5712 5712 5713 5713 5713 5713 5713 5714 5713 5714 5714 5714 5714 5714 5714 5714 5714 5713
5675 5676 5677 5677 5677 5678 5680 5680 5684 5684 5684 5685 5686 5687 5688 5689 5689 5690 5691 5692 5692 5693 5694 5695 5696 5696 5697 5698 5699 5700 5700 5701 5701 5702 5702 5702 5702 5702 5702 5702 5702 5702 5702 5702 5702 5702 5701 5701 5701
5667 5668 5669 5669 5669 5670 5671 5671 5675 5675 5676 5677 5678 5678 5678 5679 5680 5680 5681 5681 5682 5683 5683 5684 5685 5686 5687 5687 5688 5689 5689 5689 5690 5690 5690 5690 5690 5690 5690 5690 5690 5690 5690 5690 5689 5689 5689 5688 5688
5660 5660 5660 5660 5661 5662 5664 5664 5666 5668 5668 5669 5669 5669 5669 5670 5670 5671 5671 5672 5672 5673 5673 5674 5675 5675 5676 5676 5677 5677 5678 5678 5678 5678 5679 5678 5679 5678 5678 5678 5678 5678 5677 5677 5677 5676 5676 5675 5675
5653 5654 5653 5653 5653 5655 5656 5655 5658 5660 5660 5660 5660 5660 5660 5661 5661 5662 5662 5662 5662 5663 5663 5664 5664 5665 5665 5665 5665 5666 5666 5667 5667 5667 5667 5667 5667 5666 5666 5666 5665 5665 5665 5664 5664 5663 5663 5662 5661
5646 5647 5648 5647 5647 5648 5648 5648 5651 5652 5652 5652 5652 5652 5652 5652 5653 5653 5653 5653 5653 5653 5654 5654 5654 5654 5654 5654 5654 5655 5655 5655 5655 5655 5655 5655 5655 5654 5654 5653 5653 5652 5652 5651 5650 5650 5649 5648 5648
5639 5640 5641 5641 5640 5640 5641 5642 5644 5644 5644 5644 5645 5644 5644 5644 5644 5645 5645 5645 5644 5644 5644 5644 5644 5644 5644 5644 5644 5644 5643 5643 5643 5643 5643 5643 5643 5642 5642 5641 5640 5639 5638 5638 5637 5636 5636 5635 5634
5633 5634 5634 5633 5633 5633 5634 5635 5637 5637 5637 5637 5637 5637 5637 5637 5636 5636 5636 5636 5636 5635 5635 5635 5635 5634 5634 5634 5633 5633 5632 5632 5632 5632 5631 5631 5630 5630 5629 5628 5627 5627 5626 5625 5624 5623 5622 5621 5620
5627 5627 5627 5627 5627 5627 5626 5631 5630 5630 5630 5630 5630 5629 5629 5629 5629 5628 5628 5627 5627 5626 5626 5625 5625 5624 5624 5624 5623 5622 5622 5621 5621 5620 5620 5619 5619 5618 5617 5616 5615 5614 5613 5612 5610 5609 5608 5607 5606
5619 5620 5620 5621 5620 5620 5620 5625 5623 5622 5622 5622 5622 5621 5621 5621 5620 5620 5620 5619 5618 5617 5617 5616 5615 5615 5614 5614 5613 5612 5611 5611 5610 5610 5609 5608 5607 5606 5605 5604 5602 5601 5600 5598 5597 5596 5594 5593 5591
Wind_Speed
27 26 26 26 26 26 25 24 24 23 22 22 22 23 23 22 22 22 21 21 21 21 21 21 21 20 20 19 19 19 19 19 18 18 17 17 16 16 16 16 16 15 15 15 14 14 14 13 13
27 27 27 27 28 27 26 24 24 24 24 23 23 24 24 24 24 23 23 23 23 22 23 23 22 22 21 21 20 21 20 20 20 20 20 19 18 18 18 18 18 17 17 17 17 16 15 15 15
28 27 27 27 28 28 27 25 24 25 25 24 25 25 25 25 25 24 24 24 24 24 24 24 24 24 23 23 22 22 22 22 22 21 21 21 20 20 19 19 19 19 19 18 18 17 17 17 17
28 28 29 28 28 28 28 27 26 26 26 26 26 27 27 27 26 26 26 25 25 25 25 25 26 25 25 25 24 24 23 23 23 23 22 22 22 22 21 21 21 21 20 20 19 19 18 18 18
30 30 30 29 28 27 28 28 27 27 27 27 26 27 27 28 28 28 27 27 27 26 26 26 27 27 27 27 27 26 25 25 25 24 24 24 23 23 23 23 23 23 22 22 21 21 21 20 20
31 31 31 30 29 29 28 29 28 27 27 27 27 26 27 28 28 28 28 28 28 28 27 27 27 28 28 28 28 28 27 27 27 26 26 26 25 25 25 25 25 24 24 24 23 23 23 22 22
31 31 32 31 30 30 29 29 28 27 27 27 26 25 26 27 28 28 28 29 29 29 28 28 29 29 29 29 29 30 29 29 28 28 28 27 27 27 27 26 26 26 25 25 26 25 25 25 25
31 31 31 32 31 30 30 29 29 29 29 28 27 25 25 26 28 28 29 29 29 29 30 29 30 30 30 30 30 31 31 31 31 31 30 29 29 29 28 28 28 27 27 27 27 27 27 27 27
32 32 32 32 32 31 31 31 31 30 30 30 28 28 27 26 27 27 28 29 29 29 30 30 30 30 31 31 31 32 32 32 32 32 32 31 31 30 30 30 29 30 29 29 29 30 30 29 29
32 31 31 31 31 31 32 32 32 31 31 31 30 29 28 28 28 28 28 29 29 29 29 30 30 30 31 31 32 32 33 33 33 33 33 33 33 33 33 32 33 32 32 32 32 31 31 32 31
32 32 31 31 31 32 32 32 32 32 32 32 31 30 29 28 28 28 28 29 29 30 30 30 30 30 30 31 32 32 33 34 34 34 34 34 34 35 35 34 34 35 35 34 34 34 33 33 34
32 32 32 31 32 32 33 33 33 33 33 32 32 31 31 30 30 29 30 30 31 31 31 31 31 31 31 31 32 33 34 35 35 35 35 36 35 35 36 36 36 36 36 36 36 35 35 35 35
31 31 32 32 32 33 34 34 34 34 34 33 33 32 31 31 31 30 30 31 32 32 32 32 32 32 32 33 34 34 35 36 37 37 37 37 37 36 37 37 38 38 38 38 38 38 37 37 37
30 31 31 31 31 32 33 34 34 34 34 34 34 33 33 32 32 31 31 31 32 33 33 34 33 33 34 34 35 35 36 37 37 38 38 38 38 38 38 38 39 39 39 39 39 39 39 39 39
30 30 30 32 32 32 32 33 34 34 34 34 34 33 34 34 34 33 32 33 33 34 34 34 35 35 35 35 36 37 37 38 38 39 39 40 40 39 40 40 40 41 41 42 42 41 41 41 41
29 30 30 31 32 33 33 32 33 34 34 34 35 34 34 35 36 35 35 35 35 35 36 36 36 37 37 37 37 37 39 39 40 40 41 41 41 41 42 42 42 42 42 43 43 43 43 43 43
30 30 30 31 32 34 35 33 32 33 34 35 36 36 35 36 37 37 37 37 37 37 38 38 38 39 39 39 39 39 39 40 40 41 42 42 42 42 43 43 44 44 44 44 44 44 45 44 45
30 31 31 31 32 33 34 34 34 34 34 35 36 36 37 36 36 37 37 38 38 39 39 39 39 40 40 41 41 41 41 41 42 42 43 43 43 44 44 45 45 46 46 46 46 47 46 46 46
30 31 31 32 32 33 34 34 34 34 34 34 35 35 36 36 36 36 38 39 39 39 40 41 41 41 42 42 43 43 42 42 42 43 44 45 45 45 45 45 46 46 47 47 48 48 48 48 48
30 31 31 32 32 33 34 34 35 35 34 34 34 35 36 37 37 37 37 38 39 40 40 41 41 42 43 43 43 43 43 44 44 45 46 46 47 47 47 47 47 47 47 47 48 48 48 49 49
30 30 30 31 32 33 34 35 35 35 35 35 35 36 36 37 37 38 39 39 40 40 41 42 42 43 43 44 45 45 45 45 45 46 46 47 48 48 48 48 47 48 48 48 48 49 49 49 49
29 30 30 31 32 33 34 34 33 34 35 35 35 36 37 37 38 38 39 39 40 40 41 42 42 43 43 44 45 45 45 46 46 47 47 48 48 49 49 49 48 48 49 49 49 50 50 50 50
28 28 30 30 31 32 33 34 32 32 33 34 35 35 36 36 37 37 37 38 39 39 40 41 41 42 43 43 44 45 46 46 47 47 47 47 47 48 48 48 48 49 49 49 50 50 50 50 50
27 28 29 30 31 32 31 33 33 31 32 32 33 34 35 35 35 35 35 36 37 37 38 39 40 41 42 43 44 44 45 45 46 47 47 47 47 47 48 48 49 49 49 50 50 50 51 51 51
26 26 28 29 30 30 29 31 31 29 30 31 31 31 32 33 33 34 34 35 35 36 36 37 38 40 41 43 44 44 44 45 45 45 46 47 47 47 47 48 49 50 50 50 50 51 51 51 52
24 25 26 27 28 28 28 28 27 26 27 28 28 29 29 30 31 32 32 33 33 34 35 36 37 38 40 41 42 43 43 44 45 45 46 46 46 46 47 48 48 49 50 51 50 51 51 51 52
24 25 25 27 27 27 27 27 26 26 25 26 26 27 27 28 29 30 31 31 32 32 33 34 36 37 38 39 40 41 42 43 44 44 45 45 45 45 46 47 47 47 48 49 50 50 51 51 51
24 24 25 26 28 29 28 27 26 25 25 25 25 26 26 26 27 29 29 30 31 32 33 34 35 36 37 37 38 39 40 41 41 42 43 43 44 45 45 46 47 47 48 49 50 51 51 52 52
25 25 26 27 28 29 29 27 25 24 24 24 25 25 26 26 27 28 29 30 31 32 32 33 34 35 35 36 36 37 37 38 38 39 40 41 42 43 44 45 46 46 47 48 49 51 52 53 53
25 26 26 27 27 28 29 27 26 26 26 26 26 26 26 27 27 28 29 30 31 31 32 33 34 34 35 35 35 35 35 36 36 37 37 38 39 40 41 42 43 44 45 47 48 49 50 51 52
Wind_Direction
242 243 242 241 239 239 241 241 242 243 244 243 244 245 245 245 247 248 247 244 245 247 248 249 250 251 251 252 252 252 254 254 253 253 252 252 253 254 256 258 259 259 259 259 260 262 264 266 268
241 242 243 242 242 241 241 244 243 243 244 242 242 244 246 246 247 248 247 246 247 249 250 249 249 250 251 252 252 252 253 254 253 252 252 253 253 254 256 258 259 260 260 260 260 262 264 266 268
244 243 243 243 244 242 242 244 244 244 244 243 243 244 246 245 246 246 247 247 248 250 251 250 249 250 251 252 252 252 253 254 254 252 252 253 254 254 256 257 259 260 261 261 261 262 264 266 267
244 245 245 244 244 244 244 243 245 244 243 243 244 245 245 245 246 246 246 247 248 249 250 249 249 251 252 253 253 253 253 253 253 252 252 253 255 255 255 257 259 259 262 262 260 260 262 265 266
244 245 246 245 245 245 245 244 244 244 243 244 244 245 246 246 247 247 247 247 248 248 249 250 250 251 252 253 253 254 253 252 252 252 252 254 255 256 256 257 258 260 261 261 261 262 263 264 265
244 245 246 246 246 246 246 246 246 244 246 246 246 246 247 248 249 248 247 248 248 249 250 251 251 252 252 253 252 252 253 253 253 252 252 253 254 256 257 257 258 259 260 260 262 262 264 265 266
244 245 246 247 246 246 247 247 247 244 245 246 246 247 246 247 248 248 248 248 248 249 249 251 252 253 253 254 254 253 253 253 253 252 252 252 254 255 256 257 257 258 259 260 262 263 264 266 267
244 245 246 247 246 246 247 248 248 246 246 247 248 249 248 248 248 249 247 248 248 249 250 251 252 254 254 254 254 254 254 253 253 253 254 254 255 256 256 257 257 258 259 261 263 263 264 265 266
246 247 247 247 247 246 247 248 248 247 248 248 249 250 250 249 250 249 248 248 249 250 251 252 253 253 254 255 254 254 254 254 253 253 255 255 256 257 258 257 258 259 260 261 262 263 264 265 266
247 247 247 247 248 247 247 249 250 248 248 249 249 250 250 251 251 250 249 249 249 250 251 252 253 253 254 254 254 254 254 254 254 254 255 256 256 257 258 259 260 261 261 261 262 263 265 265 266
248 248 248 249 249 248 248 249 251 251 250 249 250 251 252 252 252 251 251 250 250 251 251 251 252 253 255 255 254 254 254 254 254 255 255 257 258 258 258 259 260 261 261 261 262 264 265 266 267
249 249 249 249 249 249 249 250 250 250 250 250 250 251 252 251 250 250 250 250 251 252 251 252 252 253 253 253 254 254 254 254 254 254 256 257 258 259 260 260 261 261 262 262 263 264 264 266 267
251 249 249 250 249 249 249 249 251 251 250 251 251 251 251 250 249 251 253 252 252 252 252 252 252 253 254 254 254 254 254 255 255 255 256 257 259 260 261 261 262 263 263 264 265 265 266 267 268
252 251 249 248 249 249 249 249 249 250 251 252 251 251 251 251 250 251 252 253 253 253 252 252 251 253 253 253 253 254 255 255 256 257 257 257 259 260 261 262 262 263 264 265 265 265 266 267 269
253 252 251 251 250 250 251 250 250 250 251 252 251 251 252 252 251 250 251 254 255 254 253 253 253 253 254 254 255 255 256 256 257 258 259 259 260 261 262 262 263 263 264 264 265 266 267 268 269
254 252 252 252 252 251 251 251 251 251 251 252 252 252 252 252 251 251 252 254 254 255 254 254 255 255 255 255 256 257 256 257 258 259 260 261 262 262 262 263 263 264 264 264 265 266 267 267 268
254 254 253 252 251 252 251 250 250 251 252 252 253 254 254 253 252 252 253 254 255 256 256 256 255 254 255 256 257 259 259 258 260 261 262 263 263 263 263 264 264 264 265 265 266 266 267 268 269
256 255 254 254 252 252 252 251 251 252 253 253 254 254 254 254 254 254 255 255 256 256 256 256 255 254 255 256 258 259 260 260 261 262 263 264 264 265 264 265 265 265 266 266 266 266 267 268 268
257 256 255 255 254 253 252 251 251 252 253 254 254 254 255 255 255 256 256 256 256 256 256 256 255 256 256 258 259 260 261 262 262 262 263 264 266 266 267 267 267 267 267 267 266 266 267 268 268
256 255 255 254 254 253 251 251 251 252 254 255 257 257 257 257 257 257 258 257 257 257 257 257 256 256 257 259 260 261 261 261 262 263 264 264 265 266 267 268 268 268 268 268 268 268 268 268 268
255 255 256 256 254 254 254 253 253 254 256 257 258 258 258 259 259 259 258 258 258 258 257 257 257 257 258 259 259 261 261 263 263 264 265 266 266 266 267 267 268 268 268 268 268 268 268 269 269
256 256 256 257 257 257 258 257 254 256 257 258 260 261 261 260 260 260 260 260 259 258 258 258 259 259 259 259 260 260 262 263 263 264 265 266 267 267 266 267 267 268 268 269 269 269 268 269 269
258 258 258 258 258 259 259 261 259 259 260 260 261 262 262 262 261 260 260 260 260 259 258 259 260 260 261 262 262 262 263 264 264 264 265 266 267 268 267 267 267 268 268 269 269 269 269 269 269
259 259 258 258 259 259 260 262 262 261 262 262 263 264 264 264 263 262 261 260 260 260 260 260 261 261 262 262 262 262 263 264 265 265 266 267 268 268 269 268 267 268 268 269 269 269 269 269 270
257 257 259 259 259 261 261 263 264 264 264 265 265 264 264 264 263 262 262 262 262 262 262 262 262 262 262 263 263 263 263 264 265 266 266 267 268 269 269 270 269 268 268 269 270 270 270 270 270
256 257 259 262 264 264 264 265 265 266 267 267 266 265 264 263 263 263 263 263 264 264 264 265 264 264 264 265 265 265 265 265 266 266 267 268 268 269 269 270 270 270 269 269 270 270 270 270 270
256 256 259 262 264 267 268 267 266 267 268 269 268 267 267 265 264 264 264 264 265 266 266 266 266 266 266 266 266 266 266 266 267 268 268 269 269 269 270 270 271 271 270 269 269 270 270 271 271
257 258 258 260 264 268 269 269 269 268 269 270 270 269 269 268 267 266 265 265 266 267 268 268 268 268 268 269 269 268 268 269 269 269 269 269 270 270 270 270 271 272 271 271 270 270 271 271 271
256 257 259 261 264 267 269 270 271 271 271 272 271 270 270 269 269 268 268 268 269 270 270 271 271 270 270 270 270 269 270 270 270 270 270 270 271 271 271 272 273 273 273 273 272 271 271 271 272
257 258 259 261 263 265 268 270 271 272 272 272 272 271 271 272 271 271 271 271 272 272 273 273 272 272 271 270 270 270 270 271 271 271 272 272 273 273 273 274 274 274 275 274 274 273 272 272 273